EUTELSAT 33F

Last updated on Tue Sep 22 2026 00:03:11 GMT+0000 (Coordinated Universal Time)

1 29270U 06032A 26264.28184976 .00000152 00000+0 00000+0 0 9992 2 29270 1.9023 81.0253 0003372 92.9746 320.7282 1.00271898 48279
UTC large
Height (km)
Speed (km/s)
/
Latitude / Longitude
Inclination (degrees)
Orbital Period (minutes)
Azimuth
Elevation
Range (km)
Doppler Factor

Next 0 passes for location: London (51.5072 / 0.1276)

No passes found over London.
EUTELSAT 33F